KK4PWJ-13 Weather Reports


time (UTC)temp
C
wind
direction
speed
KPH
gust
KPH
rain 1hr
cm
rain 24hr
cm
rain mn
cm
humidity
%
barometer
mb
20260505040422 16 103 0.0 1.6 0.00 0.00 0.00 62 1013.3
20260505035919 16 102 0.0 0.0 0.00 0.00 0.00 62 1013.1
20260505035415 15 102 0.0 1.6 0.00 0.00 0.00 63 1013.3
20260505034912 15 101 0.0 1.6 0.00 0.00 0.00 64 1013.2
20260505034409 15 121 0.0 0.0 0.00 0.00 0.00 67 1013.3
20260505033906 15 124 0.0 0.0 0.00 0.00 0.00 67 1013.4
20260505033403 14 124 0.0 0.0 0.00 0.00 0.00 69 1013.3
20260505032901 14 124 0.0 0.0 0.00 0.00 0.00 71 1013.3
20260505032357 14 124 0.0 0.0 0.00 0.00 0.00 69 1013.4
20260505031854 14 125 0.0 0.0 0.00 0.00 0.00 70 1013.3
20260505031351 14 125 0.0 0.0 0.00 0.00 0.00 65 1013.3
20260505030848 14 125 0.0 1.6 0.00 0.00 0.00 70 1013.2
20260505030344 14 125 0.0 0.0 0.00 0.00 0.00 71 1013.2
20260505025839 13 125 0.0 1.6 0.00 0.00 0.00 71 1013.3
20260505025337 13 125 0.0 0.0 0.00 0.00 0.00 71 1013.3
20260505024836 13 125 0.0 1.6 0.00 0.00 0.00 71 1013.3
20260505024333 13 125 0.0 0.0 0.00 0.00 0.00 72 1013.2
20260505023830 14 125 0.0 0.0 0.00 0.00 0.00 70 1013.0
20260505023327 14 125 0.0 1.6 0.00 0.00 0.00 70 1013.0
20260505022824 14 125 0.0 1.6 0.00 0.00 0.00 70 1013.0
20260505022321 14 125 0.0 0.0 0.00 0.00 0.00 70 1013.0
20260505021818 14 125 0.0 0.0 0.00 0.00 0.00 70 1013.0
20260505021315 14 125 0.0 0.0 0.00 0.00 0.00 70 1013.0
20260505020810 14 125 0.0 0.0 0.00 0.00 0.00 70 1013.0
20260505020306 14 125 0.0 0.0 0.00 0.00 0.00 70 1012.9
20260505015803 14 125 0.0 0.0 0.00 0.00 0.00 70 1012.9
20260505015301 14 125 0.0 1.6 0.00 0.00 0.00 70 1012.8
20260505014758 14 125 0.0 0.0 0.00 0.00 0.00 70 1012.7
20260505014255 14 125 0.0 0.0 0.00 0.00 0.00 69 1012.8
20260505013751 14 125 0.0 0.0 0.00 0.00 0.00 68 1012.7
20260505013248 14 125 0.0 0.0 0.00 0.00 0.00 67 1012.6
20260505012747 15 125 0.0 0.0 0.00 0.00 0.00 67 1012.4
20260505012244 15 125 0.0 0.0 0.00 0.00 0.00 67 1012.5
20260505011739 15 125 0.0 0.0 0.00 0.00 0.00 66 1012.3
20260505011236 15 125 0.0 0.0 0.00 0.00 0.00 66 1012.3
20260505010732 15 125 0.0 0.0 0.00 0.00 0.00 65 1012.0
20260505010229 15 125 0.0 0.0 0.00 0.00 0.00 65 1012.2
20260505005725 15 125 0.0 0.0 0.00 0.00 0.00 65 1012.0
20260505005222 16 125 0.0 0.0 0.00 0.00 0.00 67 1012.1
20260505004719 16 125 0.0 0.0 0.00 0.00 0.00 63 1011.8
20260505004216 16 125 0.0 0.0 0.00 0.00 0.00 62 1011.9
20260505003713 16 125 0.0 0.0 0.00 0.00 0.00 63 1011.7
20260505003211 17 125 0.0 0.0 0.00 0.00 0.00 64 1011.8
20260505002707 17 125 0.0 0.0 0.00 0.00 0.00 64 1011.7
20260505002205 17 125 0.0 0.0 0.00 0.00 0.00 62 1011.5
20260505001701 18 125 0.0 0.0 0.00 0.00 0.00 61 1011.6
20260505001159 18 125 0.0 0.0 0.00 0.00 0.00 59 1011.5
20260505000656 18 125 0.0 0.0 0.00 0.00 0.00 58 1011.5
20260505000154 19 125 0.0 0.0 0.00 0.00 0.00 60 1011.6
20260504235650 19 125 0.0 0.0 0.00 0.00 0.00 57 1011.3
20260504235146 20 125 0.0 0.0 0.00 0.00 0.00 57 1011.4
20260504234644 20 125 0.0 1.6 0.00 0.00 0.00 53 1011.3
20260504234141 20 125 0.0 0.0 0.00 0.00 0.00 52 1011.3
20260504233637 21 125 0.0 0.0 0.00 0.00 0.00 51 1011.4
20260504233133 21 125 0.0 0.0 0.00 0.00 0.00 49 1011.3
20260504232631 21 125 0.0 0.0 0.00 0.00 0.00 49 1011.4
20260504232127 22 125 0.0 0.0 0.00 0.00 0.00 49 1011.3
20260504231624 22 125 0.0 0.0 0.00 0.00 0.00 45 1011.3
20260504231120 22 125 0.0 0.0 0.00 0.00 0.00 37 1011.3
20260504230616 22 125 1.6 1.6 0.00 0.00 0.00 42 1011.2
20260504230116 22 128 0.0 1.6 0.00 0.00 0.00 42 1011.2
20260504225613 23 59 1.6 1.6 0.00 0.00 0.00 42 1011.2
20260504225109 23 57 0.0 0.0 0.00 0.00 0.00 36 1011.2
20260504224606 23 114 0.0 0.0 0.00 0.00 0.00 39 1011.1
20260504224103 23 82 1.6 1.6 0.00 0.00 0.00 38 1011.3
20260504223600 23 83 1.6 1.6 0.00 0.00 0.00 35 1011.4
20260504223055 23 82 1.6 3.2 0.00 0.00 0.00 35 1011.4
20260504222553 23 131 0.0 0.0 0.00 0.00 0.00 32 1011.3
20260504222050 23 131 1.6 1.6 0.00 0.00 0.00 35 1011.4
20260504221547 24 153 0.0 3.2 0.00 0.00 0.00 37 1011.5
20260504221044 24 152 0.0 0.0 0.00 0.00 0.00 33 1011.2
20260504220540 24 115 1.6 1.6 0.00 0.00 0.00 32 1011.4
20260504220038 24 156 1.6 3.2 0.00 0.00 0.00 35 1011.2
20260504215534 25 158 1.6 3.2 0.00 0.00 0.00 33 1011.3
20260504215032 25 79 1.6 1.6 0.00 0.00 0.00 31 1011.3
20260504214527 25 135 3.2 6.4 0.00 0.00 0.00 30 1011.4
20260504214024 25 185 0.0 3.2 0.00 0.00 0.00 30 1011.4
20260504213521 25 111 1.6 6.4 0.00 0.00 0.00 30 1011.3
20260504213018 25 69 0.0 1.6 0.00 0.00 0.00 33 1011.4
20260504212513 25 69 0.0 1.6 0.00 0.00 0.00 30 1011.3
20260504212011 25 154 1.6 3.2 0.00 0.00 0.00 31 1011.4
20260504211508 25 260 3.2 3.2 0.00 0.00 0.00 31 1011.3
20260504211005 25 96 1.6 6.4 0.00 0.00 0.00 30 1011.4
20260504210502 25 78 1.6 6.4 0.00 0.00 0.00 28 1011.3
20260504205958 25 163 1.6 3.2 0.00 0.00 0.00 28 1011.5
20260504205456 25 82 0.0 1.6 0.00 0.00 0.00 29 1011.3
20260504204954 25 157 3.2 4.8 0.00 0.00 0.00 30 1011.4
20260504204452 25 295 0.0 1.6 0.00 0.00 0.00 30 1011.4
20260504203951 26 212 1.6 3.2 0.00 0.00 0.00 29 1011.4
20260504203448 25 217 0.0 3.2 0.00 0.00 0.00 29 1011.6
20260504202944 26 158 3.2 6.4 0.00 0.00 0.00 29 1011.8
20260504202441 26 59 1.6 1.6 0.00 0.00 0.00 28 1011.5
20260504201938 26 163 0.0 3.2 0.00 0.00 0.00 27 1011.6
20260504201435 26 233 0.0 1.6 0.00 0.00 0.00 28 1011.6
20260504200933 26 239 1.6 3.2 0.00 0.00 0.00 30 1011.7
20260504200429 27 244 3.2 3.2 0.00 0.00 0.00 29 1011.6
20260504195926 27 54 1.6 3.2 0.00 0.00 0.00 27 1011.9
20260504195422 27 274 1.6 4.8 0.00 0.00 0.00 29 1011.9
20260504194918 26 120 0.0 4.8 0.00 0.00 0.00 30 1011.9
20260504194414 27 149 4.8 4.8 0.00 0.00 0.00 28 1012.0
20260504193910 27 144 1.6 4.8 0.00 0.00 0.00 28 1012.4
20260504193408 27 143 0.0 3.2 0.00 0.00 0.00 28 1012.4
20260504192907 27 51 0.0 1.6 0.00 0.00 0.00 26 1012.4
20260504192403 27 157 1.6 3.2 0.00 0.00 0.00 25 1012.4
20260504191902 27 152 0.0 1.6 0.00 0.00 0.00 28 1012.2
20260504191400 26 171 1.6 3.2 0.00 0.00 0.00 25 1012.3
20260504190855 27 142 3.2 3.2 0.00 0.00 0.00 26 1012.5
20260504190351 27 276 1.6 1.6 0.00 0.00 0.00 26 1012.6
20260504185848 26 154 1.6 3.2 0.00 0.00 0.00 26 1012.6
20260504185345 27 148 1.6 4.8 0.00 0.00 0.00 25 1012.7
20260504184841 26 251 4.8 6.4 0.00 0.00 0.00 27 1012.6
20260504184337 26 111 1.6 3.2 0.00 0.00 0.00 25 1012.5
20260504183833 26 144 1.6 3.2 0.00 0.00 0.00 24 1012.6
20260504183330 26 162 0.0 4.8 0.00 0.00 0.00 27 1012.8
20260504182828 27 168 6.4 9.7 0.00 0.00 0.00 23 1012.7
20260504182325 26 52 1.6 1.6 0.00 0.00 0.00 29 1012.8
20260504181822 26 108 3.2 3.2 0.00 0.00 0.00 27 1013.0
20260504181320 26 169 3.2 4.8 0.00 0.00 0.00 26 1013.1
20260504180818 25 17 0.0 1.6 0.00 0.00 0.00 26 1013.1
20260504180316 25 152 1.6 6.4 0.00 0.00 0.00 25 1013.1
20260504175814 26 44 3.2 11.3 0.00 0.00 0.00 25 1013.1
20260504175311 25 195 0.0 1.6 0.00 0.00 0.00 28 1013.0
20260504174809 25 120 0.0 3.2 0.00 0.00 0.00 27 1013.1
20260504174306 25 244 1.6 6.4 0.00 0.00 0.00 30 1013.3
20260504173802 25 157 1.6 3.2 0.00 0.00 0.00 27 1013.3
20260504173259 25 20 1.6 4.8 0.00 0.00 0.00 29 1013.0
20260504172756 25 102 1.6 1.6 0.00 0.00 0.00 27 1013.2
20260504172253 26 57 3.2 4.8 0.00 0.00 0.00 27 1013.2
20260504171749 25 164 0.0 3.2 0.00 0.00 0.00 27 1013.5
20260504171246 25 99 0.0 1.6 0.00 0.00 0.00 31 1013.5
20260504170743 24 113 3.2 4.8 0.00 0.00 0.00 29 1013.5
20260504170240 24 76 0.0 0.0 0.00 0.00 0.00 29 1013.7
20260504160159 21 135 3.2 4.8 0.00 0.00 0.00 37 1014.7
20260504151126 18 107 0.0 1.6 0.00 0.00 0.00 54 1014.9
20260504150624 18 130 1.6 4.8 0.00 0.00 0.00 49 1014.8
20260504150121 18 98 1.6 1.6 0.00 0.00 0.00 52 1015.0
20260504141049 15 139 1.6 1.6 0.00 0.00 0.00 64 1014.9
20260504140546 15 139 1.6 3.2 0.00 0.00 0.00 62 1015.1
20260504130510 9 239 0.0 0.0 0.00 0.00 0.00 90 1015.2
20260504110357 3 138 0.0 0.0 0.00 0.00 0.00 96 1015.6
20260504100315 3 138 0.0 0.0 0.00 0.00 0.00 95 1015.2
20260504081708 3 138 0.0 0.0 0.00 0.00 0.00 93 1014.9
20260504081204 3 138 0.0 0.0 0.00 0.00 0.00 93 1014.9
20260504080701 3 138 0.0 0.0 0.00 0.00 0.00 93 1014.8
20260504080157 3 138 0.0 0.0 0.00 0.00 0.00 93 1015.0
20260504070125 4 133 0.0 0.0 0.00 0.00 0.00 93 1015.0
20260504050514 5 132 0.0 0.0 0.00 0.00 0.00 90 1015.4
20260504050011 5 132 0.0 0.0 0.00 0.00 0.00 90 1015.5
20260504045508 5 132 0.0 0.0 0.00 0.00 0.00 90 1015.4
20260504045003 5 132 0.0 0.0 0.00 0.00 0.00 90 1015.2
20260504044501 5 132 0.0 0.0 0.00 0.00 0.00 90 1015.3
20260504043957 5 132 0.0 0.0 0.00 0.00 0.00 90 1015.4
20260504043454 5 132 0.0 0.0 0.00 0.00 0.00 89 1015.5
20260504042952 5 132 0.0 0.0 0.00 0.00 0.00 89 1015.5
20260504042448 5 132 0.0 0.0 0.00 0.00 0.00 89 1015.3
20260504041945 5 132 0.0 0.0 0.00 0.00 0.00 89 1015.6
20260504041441 5 132 0.0 0.0 0.00 0.00 0.00 88 1015.6
20260504040937 5 132 0.0 0.0 0.00 0.00 0.00 88 1015.3